Regional Weather Roundup
Issued by NWS

Home | Current Version | Previous Version | Text Only | Print | Product List | Glossary On
Versions: 1 2 3 4 5 6 7 8 9 10 11 12 13 14 15 16 17 18 19 20 21 22 23 24 25 26 27
000
ASUS44 KJAN 241410
RWRMS

MISSISSIPPI HOURLY WEATHER ROUNDUP
NATIONAL WEATHER SERVICE JACKSON MS
900 AM CDT WED MAY 24 2017

NOTE: "FAIR: INDICATES FEW OR NO CLOUDS BELOW 12,000 FEET WITH NO
SIGNIFICANT WEATHER AND/OR OBSTRUCTIONS TO VISIBILITY.

MSZ001>002-007>008-010>013-018>021-025>028-034>036-241500-
NORTHWEST MISSISSIPPI

CITY           SKY/WX    TMP DP  RH WIND       PRES   REMARKS
BATESVILLE     FAIR      61  57  88 CALM      29.60R
CLARKSDALE       N/A     64  64 100 MISG      29.61S
CLEVELAND      PTSUNNY   62  61  97 W14G21    29.64R
GREENWOOD      CLOUDY    62  59  90 VRB3      29.62S
GREENVILLE     PTSUNNY   62  56  80 W15       29.65S
OLIVE BRANCH   PTSUNNY  N/A N/A N/A N9        29.57R
OXFORD         FAIR      57  55  94 MISG      29.60R
TUNICA         CLOUDY    61  59  94 W9        29.61R
WINONA         CLOUDY    60  57  90 W8G17     29.61R
$$

MSZ003>006-009-014>017-022>024-029>033-037>039-241500-
NORTHEAST MISSISSIPPI

CITY           SKY/WX    TMP DP  RH WIND       PRES   REMARKS
COLUMBUS AFB   MOSUNNY   65  62  88 W16       29.54R
CORINTH        RAIN      59  57  94 NW13      29.52S
GOLDN TRIANGLE PTSUNNY   63  55  77 NW12G20   29.53R
STARKVILLE     CLOUDY    63  57  82 W8G16     29.58R
TUPELO         CLOUDY    61  57  87 W6        29.54R
$$

MSZ040-058-241500-
CENTRAL MISSISSIPPI

CITY           SKY/WX    TMP DP  RH WIND       PRES   REMARKS
JACKSON INTL   PTSUNNY   63  56  78 NW16G25   29.66F
JACKSON HAWKNS MOSUNNY   63  56  78 NW14G22   29.68S
MADISON        PTSUNNY   61  55  82 W13       29.66S
MERIDIAN KEY   PTSUNNY   65  58  78 W15       29.61R
MERIDIAN NAS   PTSUNNY   66  54  65 W20G25    29.59S
VICKSBURG VKS  SUNNY     64  57  77 W12       29.67S
$$

MSZ059>079-241500-
SOUTH MISSISSIPPI

CITY           SKY/WX    TMP DP  RH WIND       PRES   REMARKS
COLUMBIA       FAIR      64  55  72 NW13      29.70S
HATTIESBURG    MOSUNNY   66  55  67 NW14G23   29.67R
LAUREL         CLOUDY    63  55  76 W16       29.66R
MCCOMB         MOSUNNY   62  53  72 NW12      29.68F
NATCHEZ        SUNNY     64  57  78 NW8       29.72F
PINE BELT      NOT AVBL
$$

MSZ080>082-241500-
COASTAL MISSISSIPPI

CITY           SKY/WX    TMP DP  RH WIND       PRES   REMARKS
BAY ST LOUIS   MOSUNNY   68  59  73 NW14      29.66S
BILOXI         PTSUNNY   71  60  68 NW13      29.63R
PASCAGOULA     PTSUNNY   72  62  71 VRB7      29.64R
GULFPORT       PTSUNNY   71  60  68 NW16      29.64R
$$

LAZ007>009-015>016-023>026-241500-
NORTHEAST LOUISIANA

CITY           SKY/WX    TMP DP  RH WIND       PRES   REMARKS
BASTROP        FAIR      62  60  93 W9        29.70F
TALLULAH/VBURG SUNNY     63  56  78 VRB7G17   29.69F
VIDALIA        FAIR      63  57  81 W12       29.72R
$$




USA.gov is the U.S. government's official web portal to all federal, state and local government web resources and services.